Location: ??
(35.5322°N, 139.7374°E)
Time: 23:36:29
(UTC+00:00)

Daily predictions for brighter satellites

Satellite Brightness Start Highest point End
(mag) Time Altitude Azimuth Time Altitude Azimuth Time Altitude Azimuth
Milstar 3 4.5 17:57:44 60° SSW 17:57:44 60° SSW 18:08:01 10° ESE
Cosmos 1833 Rocket 4.4 18:23:24 28° ENE 18:23:36 28° ENE 18:28:21 10° ESE
Cosmos 2344 3.4 19:04:29 12° SSW 19:11:53 85° ESE 19:19:22 10° NNE
Hubble Space Telescope 2.7 19:13:57 22° SSE 19:13:57 22° SSE 19:16:57 10° ESE
USA 215 3.8 19:11:34 10° ESE 19:17:49 51° NE 19:21:05 28° NNW
Meteor 2-2 Rocket 4.2 19:18:08 28° N 19:21:25 89° E 19:27:09 10° S
Chandra Rocket (1) 3.7 19:23:48 18° SSE 19:23:48 18° SSE 19:24:52 10° SE
Cosmos 1076 Rocket 4.4 19:18:57 10° SSE 19:23:08 49° E 19:27:21 10° NNE
COSMOS 2455 3.0 19:21:04 33° NNW 19:23:51 73° ENE 19:29:51 10° SSE
COSMOS 2406 3.4 19:21:42 30° N 19:24:33 70° ENE 19:30:11 10° SSE
COSMO-SKYMED 1 4.3 19:22:23 10° SE 19:26:13 31° ENE 19:30:03 10° N
Cosmos 2082 Rocket 3.3 19:23:20 13° N 19:28:01 42° ENE 19:33:18 10° SE
Cosmos 1513 Rocket 4.5 19:21:57 10° N 19:28:19 89° ENE 19:34:44 10° S
BREEZE-M R/B 3.8 19:30:03 31° E 19:30:03 31° E 19:32:06 10° ESE
SL-24 R/B 4.2 19:27:39 10° N 19:32:40 65° WNW 19:37:09 10° SSW
Cosmos 2034 Rocket 4.5 19:27:35 10° N 19:33:43 60° E 19:39:52 10° SSE
Cosmos 1850 Rocket 3.9 19:32:03 34° SW 19:34:21 65° WNW 19:39:40 10° N
Cosmos 2084 Rocket 3.7 19:33:24 29° S 19:35:07 57° ESE 19:38:55 10° NE
Cosmos 2278 Rocket 3.2 19:43:59 28° NNW 19:43:59 28° NNW 19:47:32 10° N
Cosmos 1072 Rocket 4.3 19:37:06 10° N 19:43:14 71° W 19:49:16 10° S
YAOGAN 6 2.4 19:40:46 10° N 19:44:27 83° WNW 19:48:06 10° SSW
Cosmos 2346 Rocket 4.4 19:38:39 10° SSW 19:44:49 62° W 19:51:03 10° N
Cosmos 1943 Rocket 2.8 19:42:49 10° S 19:48:20 58° ESE 19:53:54 10° NNE
Cosmos 468 Rocket 4.0 19:46:15 32° NW 19:48:35 62° WSW 19:53:47 10° S
Tsikada Rocket 4.2 19:43:02 10° S 19:49:07 71° E 19:55:18 10° N
CZ-2C R/B 3.1 19:43:53 10° SSE 19:49:23 64° ENE 19:54:49 10° N
FALCON 9 DEB 4.0 19:48:33 30° S 19:49:24 39° SE 19:52:09 10° ENE
H-2A R/B 2.5 19:49:27 10° N 19:53:07 69° WNW 19:56:48 10° SSW
Cosmos 1842 Rocket 3.5 19:52:39 21° NNW 19:55:34 63° W 19:59:57 10° S
FALCON 9 DEB 2.4 20:03:52 61° WSW 20:04:14 77° NW 20:07:06 10° NE
SL-19 R/B 4.3 20:00:40 10° S 20:06:22 60° WSW 20:11:54 10° NNW
Cosmos 1606 4.0 20:07:53 23° WSW 20:07:53 23° WSW 20:10:04 10° SSW
Cosmos 1833 Rocket 3.2 20:05:10 25° WNW 20:07:31 36° WSW 20:12:36 10° S
ADEOS 3.7 20:04:54 10° NNE 20:10:08 77° ESE 20:15:21 10° S
FALCON 9 DEB 2.7 20:10:06 48° WNW 20:10:23 51° NW 20:13:11 10° NE
Cosmos 540 Rocket 3.4 20:06:03 12° NNW 20:10:41 66° WSW 20:15:46 10° S
FALCON 9 DEB 2.7 20:10:44 18° SW 20:12:41 76° SE 20:15:34 10° NE
SKYMED 2 3.5 20:09:49 10° S 20:14:08 69° WSW 20:18:28 10° NNW
FALCON 9 R/B 4.0 19:56:06 16° W 20:17:48 86° S 20:24:24 10° E
Delta 2 Rocket 4.2 20:15:37 22° WSW 20:17:56 41° SSW 20:22:22 10° SE
NOSS 3-2 (A) 3.4 20:14:05 10° SW 20:19:19 50° NW 20:25:17 10° NNE
X-37B 2.4 20:19:27 14° SW 20:19:38 15° SW 20:21:18 10° S
Tiangong 2.1 20:18:56 25° WSW 20:20:04 33° SSW 20:22:57 10° SE
NOSS 3-2 (C) 3.2 20:17:05 10° SSW 20:22:26 89° WNW 20:28:30 10° NNE
Cosmos 1782 3.5 20:18:46 10° N 20:22:40 57° E 20:26:32 10° SSE
OAO 3 Rocket 3.2 20:22:22 18° W 20:26:03 86° S 20:30:58 10° E
CENTAUR R/B 2.4 20:21:31 10° SW 20:27:00 59° NW 20:33:35 10° NNE
Cosmos 2221 3.8 20:27:29 17° WNW 20:29:05 21° W 20:32:21 10° SW
Cosmos 2098 Rocket 2.7 20:30:31 10° S 20:33:34 67° E 20:37:14 10° NNE
Cosmos 841 Rocket 3.6 20:28:54 10° NNW 20:33:53 51° WSW 20:38:51 10° S
Cosmos 1933 3.3 20:31:00 10° NNW 20:34:55 57° W 20:38:50 10° S
SJ-7 4.4 20:32:22 10° N 20:36:33 68° WNW 20:40:41 10° SSW
Cosmos 2151 3.6 20:32:45 10° SW 20:36:35 33° WNW 20:40:30 10° NNW
Cosmos 2369 Rocket 2.7 20:32:40 10° S 20:38:11 66° ESE 20:43:43 10° NNE
CZ-3 R/B 4.3 20:33:31 10° SSW 20:38:24 14° S 20:41:35 10° SE
Aureole 1 Rocket 2.5 20:35:25 10° SW 20:38:42 45° WNW 20:41:37 10° N
Envisat 3.9 20:36:04 10° NNW 20:40:16 27° WNW 20:44:27 10° SW
DMSP B5D2-2 4.3 20:36:28 10° SSE 20:41:41 78° ENE 20:46:55 10° N
Meteor 1-31 Rocket 4.0 20:40:47 10° NNW 20:43:46 21° WNW 20:46:46 10° WSW
Iridium 2 3.6 20:40:39 10° S 20:44:24 66° W 20:48:10 10° N
BREEZE-M DEB (TANK) 4.0 20:28:17 10° SW 20:46:39 87° NW 20:50:55 10° NE
Cosmos 1570 Rocket 4.0 20:42:10 10° NNW 20:47:25 78° WSW 20:52:38 10° S
H-2A R/B 2.6 20:43:40 10° SSE 20:47:44 59° ENE 20:51:54 10° N
SMAP 3.7 20:44:21 10° NNE 20:48:58 63° E 20:53:33 10° S
USA 238 DEB 3.8 20:44:29 10° SW 20:50:42 51° NW 20:57:16 10° NNE
USA 238 3.7 20:44:34 10° SW 20:50:48 52° NW 20:57:22 10° NNE
Cosmos 1766 Rocket 3.6 20:47:51 10° S 20:52:13 89° W 20:56:35 10° N
Hubble Space Telescope 2.3 20:50:50 10° WSW 20:54:28 30° S 20:58:06 10° ESE
Cosmos 1867 4.2 20:49:56 10° NNW 20:55:21 58° ENE 21:00:41 10° SE
Meteor 2-3 Rocket 4.4 20:51:59 10° SW 20:56:54 31° WNW 21:01:54 10° NNW
Cosmos 1812 2.7 20:54:18 10° N 20:58:10 89° W 21:02:00 10° S
CZ-4C R/B 3.9 20:56:33 10° SSW 20:59:16 25° W 21:01:57 10° NW
Gbstr 26 Del rocket 4.2 20:56:47 10° NNW 21:00:29 35° NE 21:04:45 10° ESE
Cosmos 1939 Rocket 2.8 20:56:41 10° N 21:00:39 74° WNW 21:04:31 10° SSW
USA 215 3.9 20:54:47 10° SSE 21:00:50 40° SW 21:06:54 10° WNW
H-2A R/B 3.7 20:56:40 10° NNE 21:01:14 38° E 21:05:46 10° SSE
NOAA 12 4.1 20:56:50 10° N 21:02:05 65° WNW 21:07:14 10° SSW
COSMO-SKYMED 1 4.0 20:59:21 10° SW 21:02:23 19° W 21:05:27 10° NW
Meteor 2-6 Rocket 4.5 20:58:08 10° N 21:03:35 72° E 21:08:55 10° SSE
Cosmos 968 Rocket 3.8 20:59:32 10° SW 21:04:25 42° WNW 21:09:19 10° N
BREEZE-M DEB (TANK) 3.7 21:00:57 10° NW 21:16:04 83° SW 21:20:19 10° SE
